Location: Alexander
(41.3564°N, 81.5960°W)
Time: 09:01:51
(UTC+00:00)

CZ-2C R/B - Pass Details

Date: 24 January 2021
Orbit: 704 x 908 km, 98.1° (Epoch: 02 March)

Event Time Altitude Azimuth Distance (km) Brightness Sun altitude
Rises 23:09:59 0° 146° (SE) 3,301 6.1 -7.2°
Reaches altitude 10° 23:12:21 10° 140° (SE) 2,405 5.4 -7.7°
Maximum altitude 23:17:23 44° 70° (ENE) 1,165 3.5 -8.6°
Drops below altitude 10° 23:22:42 10° 360° (N) 2,538 5.5 -9.5°
Sets 23:25:15 0° 354° (N) 3,502 6.3 -10.0°
